H1 CPF 2 NER 2020 11 5 9 310 01 glonass137 H2 1705501 9137 42939 2020 11 5 0 0 0 2020 11 8 23 45 0 900 1 1 0 0 0 1 H9 10 0 59158 0.00000 0 -6743137.664 -16337340.733 18415157.017 10 0 59158 900.00000 0 -4853867.681 -14896450.914 20150541.974 10 0 59158 1800.00000 0 -2704525.455 -13495955.651 21495333.098 10 0 59158 2700.00000 0 -336351.568 -12188495.896 22423477.411 10 0 59158 3600.00000 0 2199682.981 -11019233.650 22916978.687 10 0 59158 4500.00000 0 4844743.762 -10024016.771 22966243.543 10 0 59158 5400.00000 0 7534332.231 -9227951.138 22570267.843 10 0 59158 6300.00000 0 10200727.859 -8644439.256 21736659.847 10 0 59158 7200.00000 0 12775573.242 -8274725.001 20481499.394 10 0 59158 8100.00000 0 15192496.393 -8107963.248 18829035.227 10 0 59158 9000.00000 0 17389662.604 -8121811.501 16811225.368 10 0 59158 9900.00000 0 19312150.594 -8283518.894 14467128.403 10 0 59158 10800.00000 0 20914054.707 -8551467.159 11842156.286 10 0 59158 11700.00000 0 22160225.732 -8877099.042 8987202.064 10 0 59158 12600.00000 0 23027577.558 -9207153.189 5957658.587 10 0 59158 13500.00000 0 23505904.769 -9486111.214 2812346.644 10 0 59158 14400.00000 0 23598176.533 -9658753.336 -387626.953 10 0 59158 15300.00000 0 23320294.068 -9672713.970 -3580058.990 10 0 59158 16200.00000 0 22700321.587 -9480928.231 -6702863.648 10 0 59158 17100.00000 0 21777222.964 -9043864.623 -9695286.256 10 0 59158 18000.00000 0 20599157.347 -8331448.044 -12499092.477 10 0 59158 18900.00000 0 19221405.784 -7324590.206 -15059708.971 10 0 59158 19800.00000 0 17704016.584 -6016261.125 -17327292.549 10 0 59158 20700.00000 0 16109269.087 -4412054.931 -19257706.258 10 0 59158 21600.00000 0 14499063.104 -2530224.548 -20813382.986 10 0 59158 22500.00000 0 12932344.276 -401182.412 -21964059.494 10 0 59158 23400.00000 0 11462673.904 1933512.990 -22687366.505 10 0 59158 24300.00000 0 10136045.415 4422643.344 -22969263.492 10 0 59158 25200.00000 0 8989038.950 7007228.122 -22804309.918 10 0 59158 26100.00000 0 8047391.146 9622754.897 -22195767.920 10 0 59158 27000.00000 0 7325039.398 12201649.765 -21155534.732 10 0 59158 27900.00000 0 6823679.782 14675885.248 -19703906.442 10 0 59158 28800.00000 0 6532856.093 16979617.175 -17869177.894 10 0 59158 29700.00000 0 6430574.981 19051740.928 -15687086.784 10 0 59158 30600.00000 0 6484419.944 20838260.833 -13200112.907 10 0 59158 31500.00000 0 6653115.972 22294374.165 -10456646.511 10 0 59158 32400.00000 0 6888477.562 23386183.396 -7510042.201 10 0 59158 33300.00000 0 7137656.721 24091965.870 -4417577.112 10 0 59158 34200.00000 0 7345595.052 24402948.694 -1239334.084 10 0 59158 35100.00000 0 7457575.423 24323557.507 1962968.046 10 0 59158 36000.00000 0 7421764.769 23871129.918 5127173.967 10 0 59158 36900.00000 0 7191640.099 23075106.804 8191897.540 10 0 59158 37800.00000 0 6728194.935 21975736.559 11097710.055 10 0 59158 38700.00000 0 6001832.839 20622347.569 13788288.166 10 0 59158 39600.00000 0 4993868.039 19071262.043 16211499.438 10 0 59158 40500.00000 0 3697569.755 17383438.999 18320405.073 10 0 59158 41400.00000 0 2118705.910 15621945.044 20074161.165 10 0 59158 42300.00000 0 275562.893 13849358.475 21438801.859 10 0 59158 43200.00000 0 -1801560.382 12125214.448 22387890.234 10 0 59158 44100.00000 0 -4071364.115 10503597.049 22903025.217 10 0 59158 45000.00000 0 -6483024.158 9030977.711 22974195.377 10 0 59158 45900.00000 0 -8978073.550 7744389.062 22599973.246 10 0 59158 46800.00000 0 -11492612.552 6670009.389 21787546.479 10 0 59158 47700.00000 0 -13959756.921 5822215.973 20552585.022 10 0 59158 48600.00000 0 -16312224.272 5203146.185 18918946.237 10 0 59158 49500.00000 0 -18484952.372 4802784.296 16918222.796 10 0 59158 50400.00000 0 -20417641.386 4599570.243 14589141.033 10 0 59158 51300.00000 0 -22057114.862 4561504.780 11976820.264 10 0 59158 52200.00000 0 -23359401.264 4647704.663 9131906.299 10 0 59158 53100.00000 0 -24291448.964 4810342.500 6109595.133 10 0 59158 54000.00000 0 -24832402.598 4996889.424 2968565.087 10 0 59158 54900.00000 0 -24974386.746 5152565.621 -230162.147 10 0 59158 55800.00000 0 -24722763.384 5222894.648 -3424409.310 10 0 59158 56700.00000 0 -24095851.734 5156252.650 -6552056.739 10 0 59158 57600.00000 0 -23124121.811 4906303.487 -9552256.688 10 0 59158 58500.00000 0 -21848895.324 4434215.405 -12366624.292 10 0 59158 59400.00000 0 -20320608.552 3710563.970 -14940381.142 10 0 59158 60300.00000 0 -18596710.404 2716839.192 -17223428.455 10 0 59158 61200.00000 0 -16739284.388 1446491.646 -19171328.181 10 0 59158 62100.00000 0 -14812494.796 -94528.110 -20746172.518 10 0 59158 63000.00000 0 -12879964.710 -1887760.976 -21917324.653 10 0 59158 63900.00000 0 -11002196.147 -3902763.216 -22662016.184 10 0 59158 64800.00000 0 -9234140.594 -6098141.963 -22965789.756 10 0 59158 65700.00000 0 -7623021.584 -8423059.849 -22822778.488 10 0 59158 66600.00000 0 -6206500.133 -10819146.474 -22235817.014 10 0 59158 67500.00000 0 -5011259.156 -13222737.355 -21216382.291 10 0 59158 68400.00000 0 -4052065.167 -15567347.241 -19784365.576 10 0 59158 69300.00000 0 -3331345.396 -17786274.756 -17967680.250 10 0 59158 70200.00000 0 -2839296.625 -19815229.831 -15801713.374 10 0 59158 71100.00000 0 -2554519.600 -21594874.456 -13328631.777 10 0 59158 72000.00000 0 -2445150.786 -23073170.760 -10596556.515 10 0 59158 72900.00000 0 -2470442.196 -24207438.614 -7658621.999 10 0 59158 73800.00000 0 -2582721.214 -24966037.186 -4571938.410 10 0 59158 74700.00000 0 -2729646.407 -25329600.566 -1396478.058 10 0 59158 75600.00000 0 -2856662.892 -25291776.528 1806092.294 10 0 59158 76500.00000 0 -2909552.623 -24859438.349 4973610.068 10 0 59158 77400.00000 0 -2836971.151 -24052361.704 8044622.821 10 0 59158 78300.00000 0 -2592863.231 -22902381.166 10959577.959 10 0 59158 79200.00000 0 -2138654.981 -21452062.468 13661973.217 10 0 59158 80100.00000 0 -1445129.938 -19752946.790 16099445.811 10 0 59158 81000.00000 0 -493909.836 -17863440.940 18224779.717 10 0 59158 81900.00000 0 721522.492 -15846441.643 19996812.341 10 0 59158 82800.00000 0 2195301.399 -13766792.943 21381223.841 10 0 59158 83700.00000 0 3909180.446 -11688682.159 22351194.808 10 0 59158 84600.00000 0 5833059.058 -9673082.024 22887920.480 10 0 59158 85500.00000 0 7926012.957 -7775344.557 22980972.215 10 0 59159 0.00000 0 10137786.864 -6043045.596 22628499.741 10 0 59159 900.00000 0 12410689.161 -4514168.737 21837270.271 10 0 59159 1800.00000 0 14681810.663 -3215702.695 20622543.762 10 0 59159 2700.00000 0 16885477.474 -2162710.866 19007785.770 10 0 59159 3600.00000 0 18955836.847 -1357909.673 17024222.893 10 0 59159 4500.00000 0 20829469.434 -791774.111 14710248.173 10 0 59159 5400.00000 0 22447919.857 -443165.187 12110686.906 10 0 59159 6300.00000 0 23760040.257 -280452.933 9275935.950 10 0 59159 7200.00000 0 24724048.773 -263087.703 6260992.359 10 0 59159 8100.00000 0 25309216.340 -343553.408 3124389.569 10 0 59159 9000.00000 0 25497110.487 -469619.992 -72938.579 10 0 59159 9900.00000 0 25282343.006 -586799.573 -3268843.727 10 0 59159 10800.00000 0 24672789.297 -640901.599 -6401175.443 10 0 59159 11700.00000 0 23689269.336 -580577.961 -9408996.011 10 0 59159 12600.00000 0 22364703.062 -359749.142 -12233773.047 10 0 59159 13500.00000 0 20742775.307 60192.664 -14820525.930 10 0 59159 14400.00000 0 18876166.157 708498.093 -17118902.924 10 0 59159 15300.00000 0 16824421.160 1603574.031 -19084167.286 10 0 59159 16200.00000 0 14651550.909 2751960.108 -20678072.686 10 0 59159 17100.00000 0 12423460.882 4147812.864 -21869610.648 10 0 59159 18000.00000 0 10205319.473 5772920.482 -22635615.318 10 0 59159 18900.00000 0 8058974.464 7597248.595 -22961213.915 10 0 59159 19800.00000 0 6040525.861 9579995.198 -22840114.304 10 0 59159 20700.00000 0 4198156.334 11671111.095 -22274724.366 10 0 59159 21600.00000 0 2570309.231 13813222.800 -21276101.140 10 0 59159 22500.00000 0 1184289.451 15943877.809 -19863730.987 10 0 59159 23400.00000 0 55344.521 17998018.539 -18065145.320 10 0 59159 24300.00000 0 -813737.132 19910581.615 -15915379.589 10 0 59159 25200.00000 0 -1432495.510 21619113.900 -13456286.227 10 0 59159 26100.00000 0 -1822143.197 23066295.834 -10735715.216 10 0 59159 27000.00000 0 -2014413.683 24202266.581 -7806578.476 10 0 59159 27900.00000 0 -2049964.129 24986653.819 -4725816.558 10 0 59159 28800.00000 0 -1976401.422 25390223.374 -1553288.253 10 0 59159 29700.00000 0 -1846016.281 25396080.033 1649394.973 10 0 59159 30600.00000 0 -1713322.247 25000369.713 4820066.657 10 0 59159 31500.00000 0 -1632504.403 24212454.213 7897211.477 10 0 59159 32400.00000 0 -1654886.241 23054551.909 10821156.343 10 0 59159 33300.00000 0 -1826522.039 21560860.040 13535223.350 10 0 59159 34200.00000 0 -2186016.540 19776195.896 15986822.462 10 0 59159 35100.00000 0 -2762663.941 17754213.981 18128463.301 10 0 59159 36000.00000 0 -3574984.667 15555273.655 19918667.183 10 0 59159 36900.00000 0 -4629721.591 13244045.959 21322762.575 10 0 59159 37800.00000 0 -5921338.245 10886958.764 22313549.524 10 0 59159 38700.00000 0 -7432040.703 8549585.664 22871821.141 10 0 59159 39600.00000 0 -9132323.118 6294086.200 22986732.689 10 0 59159 40500.00000 0 -10982015.348 4176802.566 22656011.687 10 0 59159 41400.00000 0 -12931790.408 2246111.393 21886005.064 10 0 59159 42300.00000 0 -14925070.352 540618.793 20691562.272 10 0 59159 43200.00000 0 -16900252.748 -912227.376 19095756.019 10 0 59159 44100.00000 0 -18793166.342 -2097051.106 17129445.194 10 0 59159 45000.00000 0 -20539654.597 -3010950.207 14830687.392 10 0 59159 45900.00000 0 -22078180.160 -3663370.377 12244011.275 10 0 59159 46800.00000 0 -23352341.807 -4075456.961 9419561.753 10 0 59159 47700.00000 0 -24313198.545 -4278911.823 6412133.692 10 0 59159 48600.00000 0 -24921303.098 -4314403.630 3280112.227 10 0 59159 49500.00000 0 -25148358.768 -4229598.860 84339.886 10 0 59159 50400.00000 0 -24978429.077 -4076897.036 -3113067.330 10 0 59159 51300.00000 0 -24408648.307 -3910966.544 -6249931.596 10 0 59159 52200.00000 0 -23449401.953 -3786186.137 -9265228.471 10 0 59159 53100.00000 0 -22123968.524 -3754101.390 -12100281.132 10 0 59159 54000.00000 0 -20467636.992 -3861005.024 -14699909.597 10 0 59159 54900.00000 0 -18526336.364 -4145744.776 -17013511.747 10 0 59159 55800.00000 0 -16354834.653 -4637852.848 -18996054.346 10 0 59159 56700.00000 0 -14014582.650 -5356077.313 -20608954.314 10 0 59159 57600.00000 0 -11571292.819 -6307378.714 -21820832.788 10 0 59159 58500.00000 0 -9092354.772 -7486435.257 -22608127.193 10 0 59159 59400.00000 0 -6644195.389 -8875678.424 -22955549.512 10 0 59159 60300.00000 0 -4289693.708 -10445858.358 -22856382.038 10 0 59159 61200.00000 0 -2085758.338 -12157115.883 -22312605.105 10 0 59159 62100.00000 0 -81167.904 -13960516.678 -21334854.639 10 0 59159 63000.00000 0 1685236.149 -15799983.663 -19942210.577 10 0 59159 63900.00000 0 3185929.928 -17614546.684 -18161820.557 10 0 59159 64800.00000 0 4405604.403 -19340815.389 -16028366.398 10 0 59159 65700.00000 0 5341543.656 -20915571.627 -13583383.944 10 0 59159 66600.00000 0 6003469.981 -22278372.617 -10874449.789 10 0 59159 67500.00000 0 6412864.210 -23374055.707 -7954250.941 10 0 59159 68400.00000 0 6601791.732 -24155039.644 -4879555.864 10 0 59159 69300.00000 0 6611285.369 -24583325.825 -1710107.326 10 0 59159 70200.00000 0 6489354.934 -24632115.723 1492540.990 10 0 59159 71100.00000 0 6288708.849 -24286976.872 4666221.188 10 0 59159 72000.00000 0 6064285.108 -23546508.833 7749357.483 10 0 59159 72900.00000 0 5870696.660 -22422481.636 10682158.610 10 0 59159 73800.00000 0 5759699.615 -20939441.266 13407773.243 10 0 59159 74700.00000 0 5777791.314 -19133799.062 15873386.157 10 0 59159 75600.00000 0 5964039.660 -17052443.256 18031234.499 10 0 59159 76500.00000 0 6348235.060 -14750930.516 19839525.144 10 0 59159 77400.00000 0 6949442.699 -12291332.649 21263236.244 10 0 59159 78300.00000 0 7775016.041 -9739827.461 22274788.396 10 0 59159 79200.00000 0 8820113.257 -7164133.070 22854573.353 10 0 59159 80100.00000 0 10067737.335 -4630891.197 22991330.751 10 0 59159 81000.00000 0 11489299.119 -2203106.804 22682366.089 10 0 59159 81900.00000 0 13045680.809 62251.007 21933605.881 10 0 59159 82800.00000 0 14688756.838 2116388.475 20759488.723 10 0 59159 83700.00000 0 16363309.972 3920479.364 19182693.871 10 0 59159 84600.00000 0 18009264.055 5447036.378 17233711.680 10 0 59159 85500.00000 0 19564141.228 6680805.433 14950263.228 10 0 59160 0.00000 0 20965641.862 7619146.119 12376579.301 10 0 59160 900.00000 0 22154239.639 8271882.790 9562551.177 10 0 59160 1800.00000 0 23075683.649 8660633.158 6562769.762 10 0 59160 2700.00000 0 23683301.183 8817642.123 3435469.790 10 0 59160 3600.00000 0 23940005.178 8784171.125 241400.138 10 0 59160 4500.00000 0 23819919.828 8608510.564 -2957358.083 10 0 59160 5400.00000 0 23309555.359 8343700.110 -6098602.303 10 0 59160 6300.00000 0 22408481.002 8045053.884 -9121224.039 10 0 59160 7200.00000 0 21129466.688 7767596.076 -11966404.673 10 0 59160 8100.00000 0 19498086.323 7563516.558 -14578767.390 10 0 59160 9000.00000 0 17551798.355 7479755.310 -16907462.062 10 0 59160 9900.00000 0 15338541.601 7555818.961 -18907161.167 10 0 59160 10800.00000 0 12914904.689 7821922.913 -20538946.903 10 0 59160 11700.00000 0 10343945.509 8297538.577 -21771071.894 10 0 59160 12600.00000 0 7692751.782 8990407.953 -22579578.562 10 0 59160 13500.00000 0 5029844.532 9896067.882 -22948765.189 10 0 59160 14400.00000 0 2422532.698 10997904.683 -22871489.800 10 0 59160 15300.00000 0 -65670.995 12267737.314 -22349306.211 10 0 59160 16200.00000 0 -2377465.594 13666904.902 -21392429.910 10 0 59160 17100.00000 0 -4463908.937 15147813.162 -20019534.680 10 0 59160 18000.00000 0 -6286207.409 16655874.811 -18257384.207 10 0 59160 18900.00000 0 -7817074.999 18131762.454 -16140306.045 10 0 59160 19800.00000 0 -9041606.334 19513879.267 -13709518.356 10 0 59160 20700.00000 0 -9957628.758 20740943.495 -11012322.814 10 0 59160 21600.00000 0 -10575520.569 21754578.004 -8101179.610 10 0 59160 22500.00000 0 -10917504.929 22501795.922 -5032682.841 10 0 59160 23400.00000 0 -11016450.967 22937277.724 -1866456.706 10 0 59160 24300.00000 0 -10914234.330 23025344.018 1336005.713 10 0 59160 25200.00000 0 -10659727.861 22741541.144 4512538.084 10 0 59160 26100.00000 0 -10306508.436 22073773.075 7601507.278 10 0 59160 27000.00000 0 -9910377.731 21022932.280 10543007.058 10 0 59160 27900.00000 0 -9526802.219 19603003.226 13280015.873 10 0 59160 28800.00000 0 -9208380.704 17840634.339 15759496.476 10 0 59160 29700.00000 0 -9002446.245 15774196.290 17933416.582 10 0 59160 30600.00000 0 -8948903.344 13452365.745 19759671.507 10 0 59160 31500.00000 0 -9078391.181 10932293.229 21202891.748 10 0 59160 32400.00000 0 -9410849.851 8277430.693 22235120.820 10 0 59160 33300.00000 0 -9954549.752 5555108.115 22836351.148 10 0 59160 34200.00000 0 -10705624.920 2833958.699 22994908.368 10 0 59160 35100.00000 0 -11648130.276 181298.135 22707677.113 10 0 59160 36000.00000 0 -12754621.119 -2339434.767 21980164.111 10 0 59160 36900.00000 0 -13987231.548 -4671071.249 20826397.190 10 0 59160 37800.00000 0 -15299207.844 -6764841.551 19268661.642 10 0 59160 38700.00000 0 -16636833.915 -8582152.349 17337078.198 10 0 59160 39600.00000 0 -17941669.293 -10095939.570 15069029.782 10 0 59160 40500.00000 0 -19153006.960 -11291540.910 12508447.018 10 0 59160 41400.00000 0 -20210448.598 -12167052.155 9704965.209 10 0 59160 42300.00000 0 -21056489.433 -12733152.607 6712968.232 10 0 59160 43200.00000 0 -21639003.951 -13012407.255 3590537.220 10 0 59160 44100.00000 0 -21913527.349 -13038075.208 398324.007 10 0 59160 45000.00000 0 -21845235.750 -12852474.865 -2801628.672 10 0 59160 45900.00000 0 -21410540.575 -12504975.157 -5947097.040 10 0 59160 46800.00000 0 -20598228.467 -12049698.293 -8976892.092 10 0 59160 47700.00000 0 -19410097.328 -11543031.813 -11832056.849 10 0 59160 48600.00000 0 -17861060.264 -11041056.039 -14457020.953 10 0 59160 49500.00000 0 -15978711.769 -10596996.707 -16800689.327 10 0 59160 50400.00000 0 -13802373.349 -10258811.463 -18817442.900 10 0 59160 51300.00000 0 -11381657.771 -10067013.238 -20468031.458 10 0 59160 52200.00000 0 -8774611.457 -10052823.290 -21720340.925 10 0 59160 53100.00000 0 -6045512.347 -10236732.622 -22550019.952 10 0 59160 54000.00000 0 -3262414.905 -10627533.026 -22940953.762 10 0 59160 54900.00000 0 -494544.429 -11221858.989 -22885576.176 10 0 59160 55800.00000 0 2190350.939 -12004260.016 -22385014.030 10 0 59160 56700.00000 0 4728580.552 -12947800.416 -21449061.440 10 0 59160 57600.00000 0 7062917.029 -14015161.301 -20095984.712 10 0 59160 58500.00000 0 9144727.892 -15160198.303 -18352161.923 10 0 59160 59400.00000 0 10935745.176 -16329889.268 -16251564.408 10 0 59160 60300.00000 0 12409400.441 -17466589.722 -13835090.447 10 0 59160 61200.00000 0 13551670.739 -18510500.868 -11149764.356 10 0 59160 62100.00000 0 14361401.866 -19402245.905 -8247816.852 10 0 59160 63000.00000 0 14850097.109 -20085445.913 -5185664.851 10 0 59160 63900.00000 0 15041182.150 -20509186.518 -2022811.026 10 0 59160 64800.00000 0 14968778.872 -20630271.297 1179315.140 10 0 59160 65700.00000 0 14676041.345 -20415166.894 4358551.874 10 0 59160 66600.00000 0 14213125.509 -19841557.945 7453211.605 10 0 59160 67500.00000 0 13634879.327 -18899446.391 10403275.855 10 0 59160 68400.00000 0 12998351.598 -17591749.003 13151555.363 10 0 59160 69300.00000 0 12360224.914 -15934367.993 15644793.078 10 0 59160 70200.00000 0 11774281.021 -13955731.604 17834689.192 10 0 59160 71100.00000 0 11289005.167 -11695823.502 19678829.028 10 0 59160 72000.00000 0 10945429.837 -9204740.990 21141496.639 10 0 59160 72900.00000 0 10775308.048 -6540841.303 22194359.311 10 0 59160 73800.00000 0 10799692.458 -3768552.012 22817010.653 10 0 59160 74700.00000 0 11027979.623 -955935.330 22997362.464 10 0 59160 75600.00000 0 11457459.388 1827894.035 22731878.367 10 0 59160 76500.00000 0 12073388.512 4515391.924 22025644.886 10 0 59160 77400.00000 0 12849585.957 7043141.238 20892278.398 10 0 59160 78300.00000 0 13749525.655 9354237.316 19353669.330 10 0 59160 79200.00000 0 14727881.927 11400404.328 17439567.677 10 0 59160 80100.00000 0 15732463.703 13143755.611 15187016.899 10 0 59160 81000.00000 0 16706457.359 14558125.412 12639646.023 10 0 59160 81900.00000 0 17590884.631 15629916.973 9846832.550 10 0 59160 82800.00000 0 18327172.726 16358431.738 6862751.489 10 0 59160 83700.00000 0 18859728.435 16755666.101 3745328.267 10 0 59160 84600.00000 0 19138407.468 16845584.329 555115.405 10 0 59160 85500.00000 0 19120774.076 16662898.387 -2645885.138 10 0 59161 0.00000 0 18774054.616 16251406.315 -5795430.775 10 0 59161 900.00000 0 18076700.788 15661959.690 -8832254.555 10 0 59161 1800.00000 0 17019496.383 14950146.367 -11697263.476 10 0 59161 2700.00000 0 15606157.145 14173787.484 -14334695.897 10 0 59161 3600.00000 0 13853399.176 13390354.800 -16693213.897 10 0 59161 4500.00000 0 11790470.179 12654418.735 -18726908.805 10 0 59161 5400.00000 0 9458162.680 12015235.518 -20396199.794 10 0 59161 6300.00000 0 6907349.424 11514576.095 -21668607.728 10 0 59161 7200.00000 0 4197101.642 11184888.958 -22519389.006 10 0 59161 8100.00000 0 1392468.247 11047874.740 -22932017.145 10 0 59161 9000.00000 0 -1437991.825 11113532.843 -22898502.921 10 0 59161 9900.00000 0 -4224821.457 11379720.240 -22419547.070 10 0 59161 10800.00000 0 -6900313.047 11832240.870 -21504522.900 10 0 59161 11700.00000 0 -9401082.183 12445461.545 -20171289.408 10 0 59161 12600.00000 0 -11670460.640 13183428.025 -18445838.808 10 0 59161 13500.00000 0 -13660609.759 14001433.788 -16361785.546 10 0 59161 14400.00000 0 -15334267.067 14847974.892 -13959706.943 10 0 59161 15300.00000 0 -16666054.324 15667008.038 -11286348.532 10 0 59161 16200.00000 0 -17643293.732 16400416.098 -8393709.841 10 0 59161 17100.00000 0 -18266299.722 16990576.701 -5338028.636 10 0 59161 18000.00000 0 -18548135.692 17382925.071 -2178683.884 10 0 59161 18900.00000 0 -18513847.639 17528402.689 1022960.890 10 0 59161 19800.00000 0 -18199208.590 17385688.224 4204750.996 10 0 59161 20700.00000 0 -17649028.096 16923116.500 7304947.095 10 0 59161 21600.00000 0 -16915099.289 16120204.530 10263421.264 10 0 59161 22500.00000 0 -16053870.862 14968720.261 13022819.414 10 0 59161 23400.00000 0 -15123942.643 13473248.993 15529667.620 10 0 59161 24300.00000 0 -14183490.360 11651233.423 17735401.459 10 0 59161 25200.00000 0 -13287727.836 9532485.208 19597299.077 10 0 59161 26100.00000 0 -12486512.856 7158187.853 21079300.731 10 0 59161 27000.00000 0 -11822196.666 4579431.646 22152699.895 10 0 59161 27900.00000 0 -11327806.631 1855340.484 22796693.459 10 0 59161 28800.00000 0 -11025637.625 -949132.790 22998781.137 10 0 59161 29700.00000 0 -10926310.681 -3765652.485 22755006.880 10 0 59161 30600.00000 0 -11028338.045 -6525087.735 22070037.880 10 0 59161 31500.00000 0 -11318212.899 -9160135.845 20957079.459 10 0 59161 32400.00000 0 -11771020.261 -11607874.017 19437627.068 10 0 59161 33300.00000 0 -12351543.988 -13812134.788 17541059.344 10 0 59161 34200.00000 0 -13015824.125 -15725607.421 15304079.166 10 0 59161 35100.00000 0 -13713099.926 -17311578.598 12770012.378 10 0 59161 36000.00000 0 -14388057.496 -18545240.297 9987976.678 10 0 59161 36900.00000 0 -14983287.884 -19414510.420 7011935.836 10 0 59161 37800.00000 0 -15441852.186 -19920331.913 3899656.902 10 0 59161 38700.00000 0 -15709845.228 -20076437.813 711590.166 10 0 59161 39600.00000 0 -15738848.971 -19908591.996 -2490306.315 10 0 59161 40500.00000 0 -15488171.057 -19453337.700 -5643774.550 10 0 59161 41400.00000 0 -14926772.582 -18756306.661 -8687472.796 10 0 59161 42300.00000 0 -14034802.224 -17870160.558 -11562175.582 10 0 59161 43200.00000 0 -12804670.289 -16852252.129 -14211933.434 10 0 59161 44100.00000 0 -11241615.736 -15762105.296 -16585168.914 10 0 59161 45000.00000 0 -9363740.741 -14658821.372 -18635686.854 10 0 59161 45900.00000 0 -7201509.911 -13598521.458 -20323578.589 10 0 59161 46800.00000 0 -4796733.921 -12631933.504 -21616002.268 10 0 59161 47700.00000 0 -2201079.184 -11802226.182 -22487823.853 10 0 59161 48600.00000 0 525834.896 -11143181.081 -22922106.415 10 0 59161 49500.00000 0 3318672.293 -10677780.188 -22910438.372 10 0 59161 50400.00000 0 6108857.457 -10417267.923 -22453094.522 10 0 59161 51300.00000 0 8827190.307 -10360726.775 -21559027.025 10 0 59161 52200.00000 0 11406490.672 -10495183.816 -20245686.794 10 0 59161 53100.00000 0 13784162.299 -10796242.881 -18538679.005 10 0 59161 54000.00000 0 15904570.259 -11229215.023 -16471259.663 10 0 59161 54900.00000 0 17721133.294 -11750698.752 -14083683.199 10 0 59161 55800.00000 0 19198044.614 -12310542.610 -11422414.076 10 0 59161 56700.00000 0 20311550.360 -12854106.527 -8539217.972 10 0 59161 57600.00000 0 21050733.522 -13324725.757 -5490150.534 10 0 59161 58500.00000 0 21417771.837 -13666272.758 -2334463.797 10 0 59161 59400.00000 0 21427660.410 -13825708.271 866548.065 10 0 59161 60300.00000 0 21107412.224 -13755513.478 4050740.880 10 0 59161 61200.00000 0 20494771.575 -13415900.238 7156326.908 10 0 59161 62100.00000 0 19636495.846 -12776705.946 10123071.968 10 0 59161 63000.00000 0 18586278.893 -11818892.937 12893460.046 10 0 59161 63900.00000 0 17402404.080 -10535589.147 15413802.905 10 0 59161 64800.00000 0 16145225.977 -8932625.990 17635273.672 10 0 59161 65700.00000 0 14874586.440 -7028550.430 19514845.092 10 0 59161 66600.00000 0 13647273.210 -4854110.117 21016114.993 10 0 59161 67500.00000 0 12514626.943 -2451232.211 22110004.011 10 0 59161 68400.00000 0 11520396.149 128462.711 22775312.924 10 0 59161 69300.00000 0 10698928.974 2825551.086 22999129.589 10 0 59161 70200.00000 0 10073776.704 5575024.120 22777078.175 10 0 59161 71100.00000 0 9656766.712 8308742.426 22113406.097 10 0 59161 72000.00000 0 9447583.233 10958027.210 21020906.877 10 0 59161 72900.00000 0 9433873.325 13456282.029 19520679.958 10 0 59161 73800.00000 0 9591873.630 15741537.631 17641731.337 10 0 59161 74700.00000 0 9887531.980 17758815.107 15420421.784 10 0 59161 75600.00000 0 10278077.137 19462209.834 12899772.222 10 0 59161 76500.00000 0 10713971.122 20816609.825 10128638.583 10 0 59161 77400.00000 0 11141162.285 21798976.838 7160771.248 10 0 59161 78300.00000 0 11503544.254 22399136.651 4053776.543 10 0 59161 79200.00000 0 11745516.851 22620045.187 868000.037 10 0 59161 80100.00000 0 11814540.286 22477519.025 -2334646.703 10 0 59161 81000.00000 0 11663573.826 21999441.478 -5491892.839 10 0 59161 81900.00000 0 11253294.648 21224477.553 -8542324.531 10 0 59161 82800.00000 0 10554001.659 20200352.014 -11426586.250 10 0 59161 83700.00000 0 9547122.229 18981763.386 -14088542.974 10 0 59161 84600.00000 0 8226256.498 17628022.254 -16476379.852 10 0 59161 85500.00000 0 6597713.601 16200513.935 -18543617.109 99